TRANC RPLL-RPLL

Flight info

Callsign TRANC
Flight time 0h 23m
Altitude 1500
Route VFR
Aircraft SIRA/L-VGDW/C

Departure

Time 2026-05-05 14:15
Airport Ninoy Aquino International Airport (RPLL)

Arrival

Time 2026-05-05 14:38
Airport Ninoy Aquino International Airport (RPLL)
Time Latitude Longitude Altitude Speed Heading
2026-05-05 13:48 14.51802 121.00603 76 ft 0 kts 334°
2026-05-05 14:10 14.51849 121.00594 76 ft 26 kts 356°
2026-05-05 14:10 14.51952 121.00609 76 ft 0 kts 36°
2026-05-05 14:10 14.52027 121.00620 76 ft 29 kts 11°
2026-05-05 14:10 14.52102 121.00676 76 ft 0 kts 140°
2026-05-05 14:14 14.52100 121.00678 76 ft 4 kts 136°
2026-05-05 14:14 14.51943 121.00843 76 ft 59 kts 135°
2026-05-05 14:15 14.51609 121.01189 225 ft 70 kts 132°
2026-05-05 14:15 14.51235 121.01581 415 ft 81 kts 132°
2026-05-05 14:15 14.50842 121.01942 724 ft 77 kts 132°
2026-05-05 14:15 14.50441 121.02303 989 ft 76 kts 132°
2026-05-05 14:16 14.50023 121.02697 1203 ft 82 kts 129°
2026-05-05 14:16 14.49652 121.03133 1409 ft 88 kts 123°
2026-05-05 14:16 14.49099 121.03404 1600 ft 100 kts 175°
2026-05-05 14:16 14.48458 121.03058 1755 ft 112 kts 222°
2026-05-05 14:17 14.47970 121.02448 1838 ft 106 kts 232°
2026-05-05 14:17 14.47640 121.01801 1944 ft 98 kts 248°
2026-05-05 14:17 14.47415 121.01131 1969 ft 99 kts 251°
2026-05-05 14:17 14.47150 121.00449 1938 ft 107 kts 245°
2026-05-05 14:18 14.46907 120.99628 1741 ft 120 kts 257°
2026-05-05 14:18 14.46621 120.98820 1682 ft 107 kts 227°
2026-05-05 14:18 14.46009 120.98440 1559 ft 99 kts 186°
2026-05-05 14:18 14.45327 120.98455 1433 ft 97 kts 174°
2026-05-05 14:19 14.44658 120.98547 1276 ft 95 kts 155°
2026-05-05 14:19 14.44195 120.98958 1157 ft 90 kts 109°
2026-05-05 14:19 14.44320 120.99538 1084 ft 84 kts 43°
2026-05-05 14:19 14.44891 120.99651 918 ft 99 kts 349°
2026-05-05 14:20 14.45441 120.99268 886 ft 93 kts 318°
2026-05-05 14:20 14.45908 120.98791 845 ft 96 kts 315°
2026-05-05 14:20 14.46365 120.98320 907 ft 84 kts 318°
2026-05-05 14:20 14.46785 120.97920 903 ft 80 kts 320°
2026-05-05 14:21 14.47191 120.97499 840 ft 83 kts 316°
2026-05-05 14:21 14.47582 120.97090 826 ft 65 kts 341°
2026-05-05 14:21 14.47973 120.97244 795 ft 63 kts 44°
2026-05-05 14:21 14.48343 120.97528 812 ft 69 kts 44°
2026-05-05 14:22 14.48625 120.97914 791 ft 61 kts 63°
2026-05-05 14:22 14.48880 120.98327 736 ft 72 kts 62°
2026-05-05 14:22 14.49119 120.98789 681 ft 74 kts 61°
2026-05-05 14:22 14.49370 120.99236 524 ft 68 kts 79°
2026-05-05 14:23 14.49580 120.99663 300 ft 70 kts 53°
2026-05-05 14:23 14.49752 120.99940 189 ft 71 kts 65°
2026-05-05 14:23 14.50029 121.00460 76 ft 53 kts 61°
2026-05-05 14:23 14.50262 121.00880 119 ft 76 kts 64°
2026-05-05 14:24 14.50540 121.01354 220 ft 83 kts 65°
2026-05-05 14:24 14.50829 121.01872 318 ft 85 kts 57°
2026-05-05 14:24 14.51083 121.02382 520 ft 75 kts 68°
2026-05-05 14:24 14.51294 121.02915 771 ft 77 kts 62°
2026-05-05 14:25 14.51572 121.03354 1065 ft 74 kts 57°
2026-05-05 14:25 14.51813 121.03801 1362 ft 70 kts 63°
2026-05-05 14:25 14.52034 121.04308 1452 ft 91 kts 67°
2026-05-05 14:25 14.52255 121.04974 1512 ft 103 kts 73°
2026-05-05 14:26 14.52413 121.05621 1527 ft 86 kts 70°
2026-05-05 14:26 14.52663 121.06171 1483 ft 87 kts 55°
2026-05-05 14:26 14.52983 121.06735 1418 ft 91 kts 63°
2026-05-05 14:26 14.53281 121.07333 1355 ft 93 kts 66°
2026-05-05 14:27 14.53520 121.07935 1392 ft 87 kts 68°
2026-05-05 14:27 14.53795 121.08504 1399 ft 86 kts 63°
2026-05-05 14:27 14.53575 121.08997 1272 ft 102 kts 149°
2026-05-05 14:27 14.52881 121.09232 1219 ft 111 kts 179°
2026-05-05 14:28 14.52269 121.08750 1249 ft 114 kts 233°
2026-05-05 14:28 14.51844 121.08025 1204 ft 120 kts 239°
2026-05-05 14:28 14.51467 121.07240 1144 ft 123 kts 245°
2026-05-05 14:28 14.51146 121.06424 1091 ft 122 kts 243°
2026-05-05 14:29 14.50926 121.05889 1036 ft 119 kts 244°
2026-05-05 14:29 14.50474 121.04848 894 ft 116 kts 244°
2026-05-05 14:29 14.50159 121.04094 833 ft 114 kts 243°
2026-05-05 14:29 14.49863 121.03345 781 ft 110 kts 249°
2026-05-05 14:30 14.49538 121.02661 784 ft 105 kts 241°
2026-05-05 14:30 14.49181 121.01991 783 ft 101 kts 238°
2026-05-05 14:30 14.48868 121.01354 791 ft 99 kts 240°
2026-05-05 14:30 14.48565 121.00707 779 ft 100 kts 244°
2026-05-05 14:31 14.48260 121.00051 757 ft 101 kts 242°
2026-05-05 14:31 14.48065 120.99606 745 ft 101 kts 244°
2026-05-05 14:31 14.47749 120.98962 651 ft 107 kts 216°
2026-05-05 14:31 14.47260 120.98460 747 ft 92 kts 218°
2026-05-05 14:32 14.46539 120.98478 765 ft 80 kts 150°
2026-05-05 14:32 14.46001 120.98703 734 ft 86 kts 156°
2026-05-05 14:32 14.45432 120.98586 770 ft 90 kts 225°
2026-05-05 14:32 14.44916 120.98714 632 ft 89 kts 139°
2026-05-05 14:33 14.44677 120.99205 739 ft 72 kts 82°
2026-05-05 14:33 14.44986 120.99527 781 ft 78 kts
2026-05-05 14:33 14.45368 120.99122 751 ft 92 kts 278°
2026-05-05 14:33 14.45110 120.98562 732 ft 93 kts 206°
2026-05-05 14:34 14.44514 120.98573 708 ft 87 kts 139°
2026-05-05 14:34 14.44403 120.99117 666 ft 89 kts 60°
2026-05-05 14:34 14.44970 120.99376 639 ft 97 kts 355°
2026-05-05 14:34 14.45360 120.98923 747 ft 91 kts 263°
2026-05-05 14:35 14.44938 120.98495 650 ft 93 kts 179°
2026-05-05 14:35 14.44750 120.98814 735 ft 81 kts 41°
2026-05-05 14:35 14.45355 120.98635 816 ft 106 kts 329°
2026-05-05 14:35 14.45764 120.98333 950 ft 107 kts 328°
2026-05-05 14:36 14.46406 120.97883 1061 ft 115 kts 329°
2026-05-05 14:36 14.47289 120.97351 1344 ft 92 kts 336°
2026-05-05 14:36 14.47816 120.97058 1384 ft 84 kts 336°
2026-05-05 14:36 14.48307 120.97129 1312 ft 78 kts 58°
2026-05-05 14:37 14.48549 120.97670 1073 ft 78 kts 69°
2026-05-05 14:37 14.48774 120.98182 814 ft 83 kts 66°
2026-05-05 14:37 14.49063 120.98698 610 ft 81 kts 60°
2026-05-05 14:37 14.49332 120.99197 464 ft 79 kts 60°
2026-05-05 14:38 14.49620 120.99699 286 ft 77 kts 64°
2026-05-05 14:38 14.49858 121.00133 138 ft 68 kts 65°
2026-05-05 14:38 14.50069 121.00529 76 ft 51 kts 60°
2026-05-05 14:38 14.50233 121.00825 76 ft 43 kts 66°
2026-05-05 14:39 14.50359 121.01044 76 ft 35 kts 64°
2026-05-05 14:39 14.50468 121.01205 76 ft 9 kts 329°
2026-05-05 14:39 14.50549 121.01169 76 ft 7 kts 340°
2026-05-05 14:39 14.50577 121.01159 76 ft 0 kts 347°
2026-05-05 14:40 14.50581 121.01157 76 ft 6 kts 324°
2026-05-05 14:40 14.50728 121.01273 76 ft 39 kts 58°
2026-05-05 14:40 14.50842 121.01481 76 ft 22 kts 43°
2026-05-05 14:40 14.50890 121.01567 76 ft 6 kts 62°
2026-05-05 14:41 14.50926 121.01629 76 ft 19 kts 63°
2026-05-05 14:41 14.51150 121.01520 76 ft 42 kts 314°
2026-05-05 14:41 14.51189 121.01478 76 ft 0 kts 317°
2026-05-05 14:41 14.51245 121.01428 76 ft 12 kts 349°
2026-05-05 14:42 14.51375 121.01424 76 ft 26 kts 313°
2026-05-05 14:42 14.51537 121.01260 76 ft 36 kts 317°
2026-05-05 14:42 14.51730 121.01058 76 ft 39 kts 315°
2026-05-05 14:42 14.51930 121.00857 76 ft 38 kts 319°
2026-05-05 14:43 14.52063 121.00707 76 ft 19 kts 301°
2026-05-05 14:43 14.52015 121.00623 76 ft 23 kts 202°
2026-05-05 14:43 14.51873 121.00607 76 ft 13 kts 178°
2026-05-05 14:43 14.51838 121.00611 76 ft 0 kts 183°